Overview Statistics Trail Chart Weather Telemetry Raw packets
 

This is the latest recevied weather packets stored in our database for station/object N1JOV-7. If no packets are shown the sender has not sent any weather packets the latest 10 day(s).

<< 45 46 47 48 49 50 51 >>
Time Temp. Humidity Pressure Rain* Wind** Luminosity Snow
1787934661 26.11° C 82% 1015.7 hPa 0 mm - - -
1787934061 25° C 85% 1015.9 hPa 0 mm - - -
1787933461 25° C 85% 1016 hPa 0 mm - - -
1787932861 24.44° C 88% 1016.1 hPa 0 mm - - -
1787932261 23.89° C 89% 1016.1 hPa 0 mm - - -
1787931661 23.33° C 91% 1016.2 hPa 0 mm - - -
1787931062 23.33° C 91% 1016.4 hPa 0 mm - - -
1787930462 23.33° C 92% 1016.2 hPa 0 mm - - -
1787929862 23.33° C 91% 1016.3 hPa 0 mm - - -
1787929262 23.33° C 92% 1016.4 hPa 0 mm - - -
1787928662 22.78° C 93% 1016.4 hPa 0 mm - - -
1787928062 22.78° C 94% 1016.5 hPa 0 mm - - -
1787927461 22.78° C 95% 1016.3 hPa 0 mm - - -
1787926861 22.78° C 96% 1016.4 hPa 0 mm - - -
1787926261 22.22° C 97% 1016.3 hPa 0 mm - - -
1787925661 22.22° C 99% 1016.3 hPa 0 mm - - -
1787925062 22.22° C 99% 1016.2 hPa 0 mm - - -
1787924462 21.11° C 99% 1016.3 hPa 0 mm - - -
1787923862 21.11° C 99% 1016.2 hPa 0 mm - - -
1787923262 21.11° C 99% 1016.3 hPa 0 mm - - -
1787922662 21.11° C 99% 1016.5 hPa 0 mm - - -
1787922061 21.11° C 99% 1016.6 hPa 0 mm - - -
1787921461 20.56° C 99% 1016.5 hPa 0 mm - - -
1787920861 20.56° C 99% 1016.4 hPa 0 mm - - -
1787920261 20.56° C 99% 1016.5 hPa 0 mm - - -

* Rain latest hour (hover to see other rain measurements)
** Current wind speed in m/s (hover to see current wind gust speed)